CW9455 Orient NY US current weather conditions

sailwx.info

Wind from 306 at 9 knots gusting 23

Air temperature 8.3° C
Dewpoint 3.2° C

Last reported at 2019-Dec-15 15:04 UTC.
Time now 2019-Dec-15 16:05 UTC

Location: N 41°08' W 072°18'.
View on Google Maps.

See reports from other nearby stations

  
Tides and Currents Weather Stations Pressure Air Temp Water Temp Dewpoint Dewpoint Depression Visibility Wind Speed Wind Dir Waves Ship Positions
date/time (UTC)wind fromknots sea level pressurealtimeterstation pressurevisibilityair tempwater tempwave heightnotes
2019-Dec-15 15:04 306 9 gusting 23 8.3
2019-Dec-15 14:59 305 10 gusting 19 8.3
2019-Dec-15 14:54 302 11 gusting 21 8.3
2019-Dec-15 14:49 309 11 gusting 21 8.3
2019-Dec-15 14:44 317 10 gusting 21 8.3
2019-Dec-15 14:39 292 9 gusting 20 8.3
2019-Dec-15 14:34 309 10 gusting 20 8.3
2019-Dec-15 14:29 325 11 gusting 20 7.8
2019-Dec-15 14:24 291 10 gusting 19 7.8
2019-Dec-15 14:19 335 10 gusting 19 7.8
2019-Dec-15 14:14 315 11 gusting 23 7.8
2019-Dec-15 14:09 321 9 gusting 23 7.8
2019-Dec-15 14:04 298 8 gusting 19 7.8
2019-Dec-15 13:59 290 10 gusting 19 7.8
2019-Dec-15 13:54 005 11 gusting 19 7.8
2019-Dec-15 13:49 321 12 gusting 22 7.8
2019-Dec-15 13:44 329 13 gusting 25 7.8
2019-Dec-15 13:39 331 12 gusting 25 7.8
2019-Dec-15 13:34 7.8
2019-Dec-15 13:29 013 11 gusting 23 7.8
2019-Dec-15 13:24 306 11 gusting 26 7.8
2019-Dec-15 13:19 348 13 gusting 26 7.8
2019-Dec-15 13:14 275 12 gusting 24 7.8
2019-Dec-15 13:09 343 12 gusting 24 7.8
2019-Dec-15 13:04 340 14 gusting 27 7.8
2019-Dec-15 12:59 013 13 gusting 27 7.8
2019-Dec-15 12:54 319 13 gusting 26 7.8
2019-Dec-15 12:49 315 13 gusting 26 7.8
2019-Dec-15 12:44 009 12 gusting 26 7.8
2019-Dec-15 12:39 333 12 gusting 24 7.8
2019-Dec-15 12:34 005 12 gusting 24 7.8
2019-Dec-15 12:29 7.2
2019-Dec-15 12:24 355 13 gusting 25 7.2
2019-Dec-15 12:19 039 12 gusting 21 7.2
2019-Dec-15 12:14 010 13 gusting 27 7.2
2019-Dec-15 12:09 7.2
2019-Dec-15 12:04 315 13 gusting 24 7.2
2019-Dec-15 11:59 355 13 gusting 20 7.2
2019-Dec-15 11:54 325 11 gusting 22 7.2
2019-Dec-15 11:49 331 13 gusting 27 7.2
2019-Dec-15 11:44 323 13 gusting 27 7.8
2019-Dec-15 11:39 299 12 gusting 26 7.2
2019-Dec-15 11:34 7.2
2019-Dec-15 11:29 310 12 gusting 26 7.2
2019-Dec-15 11:24 315 12 gusting 24 7.2
2019-Dec-15 11:19 047 13 gusting 24 7.2
2019-Dec-15 11:14 313 13 gusting 24 7.2
2019-Dec-15 11:09 315 13 gusting 25 7.2
2019-Dec-15 11:04 283 13 gusting 25 7.2
2019-Dec-15 10:59 309 12 gusting 23 7.2
2019-Dec-15 10:54 7.2
2019-Dec-15 10:49 329 12 gusting 26 7.2
2019-Dec-15 10:43 321 12 gusting 22 7.2
2019-Dec-15 10:38 350 13 gusting 23 7.2
2019-Dec-15 10:33 300 12 gusting 23 7.2
2019-Dec-15 10:29 313 11 gusting 19 7.2
2019-Dec-15 10:23 349 12 gusting 21 7.2
2019-Dec-15 10:19 315 12 gusting 21 7.2
2019-Dec-15 10:13 7.2
2019-Dec-15 10:08 292 14 gusting 27 7.2
2019-Dec-15 10:03 005 13 gusting 27 7.2
2019-Dec-15 09:58 345 12 gusting 22 7.2
2019-Dec-15 09:54 355 11 gusting 22 7.2
2019-Dec-15 09:48 338 13 gusting 25 7.2
2019-Dec-15 09:44 355 13 gusting 25 7.2
2019-Dec-15 09:38 7.2
2019-Dec-15 09:34 7.2
2019-Dec-15 09:28 019 13 gusting 26 7.2
2019-Dec-15 09:23 7.2
2019-Dec-15 09:18 336 11 gusting 22 7.2
2019-Dec-15 09:13 348 12 gusting 24 7.2
2019-Dec-15 09:08 021 13 gusting 24 7.2
2019-Dec-15 09:03 7.2
2019-Dec-15 08:58 302 13 gusting 27 7.2
2019-Dec-15 08:53 7.2
2019-Dec-15 08:48 027 13 gusting 25 7.2
2019-Dec-15 08:43 355 13 gusting 23 7.2
2019-Dec-15 08:38 332 12 gusting 25 7.2
2019-Dec-15 08:33 348 12 gusting 25 7.2
2019-Dec-15 08:28 310 13 gusting 24 7.2
2019-Dec-15 08:23 344 13 gusting 24 7.2
2019-Dec-15 08:18 005 12 gusting 25 7.2
2019-Dec-15 08:13 309 12 gusting 25 7.2
2019-Dec-15 08:08 341 12 gusting 21 7.2
2019-Dec-15 08:03 338 10 gusting 19 7.2
2019-Dec-15 07:58 355 11 gusting 23 7.2
2019-Dec-15 07:53 329 13 gusting 24 7.2
2019-Dec-15 07:48 281 13 gusting 24 7.2
2019-Dec-15 07:43 040 13 gusting 26 7.2
2019-Dec-15 07:38 283 13 gusting 26 7.2
2019-Dec-15 07:33 305 12 gusting 24 7.2
2019-Dec-15 07:28 355 13 gusting 24 7.2
2019-Dec-15 07:23 322 13 gusting 26 7.2
2019-Dec-15 07:18 340 13 gusting 26 7.2
2019-Dec-15 07:13 355 13 gusting 25 7.2
2019-Dec-15 07:08 265 12 gusting 22 7.2
2019-Dec-15 07:03 331 13 gusting 23 7.2
2019-Dec-15 06:58 299 13 gusting 23 7.2
2019-Dec-15 06:53 325 13 gusting 25 7.2
2019-Dec-15 06:48 009 12 gusting 25 7.2
2019-Dec-15 06:43 342 13 gusting 26 7.2
2019-Dec-15 06:38 326 13 gusting 28 7.2
2019-Dec-15 06:33 314 14 gusting 28 7.2
2019-Dec-15 06:28 7.2
2019-Dec-15 06:23 355 13 gusting 28 7.2
2019-Dec-15 06:18 7.2
2019-Dec-15 06:13 055 13 gusting 25 7.2
2019-Dec-15 06:08 337 14 gusting 27 7.2
2019-Dec-15 06:03 7.2
2019-Dec-15 05:58 348 12 gusting 23 7.8
2019-Dec-15 05:53 022 13 gusting 23 7.8
2019-Dec-15 05:48 309 13 gusting 23 7.8
2019-Dec-15 05:43 346 12 gusting 22 7.8
2019-Dec-15 05:38 315 13 gusting 22 7.8
2019-Dec-15 05:33 350 13 gusting 23 7.8
2019-Dec-15 05:28 331 14 gusting 26 7.8
2019-Dec-15 05:23 265 14 gusting 33 8.3
2019-Dec-15 05:18 319 14 gusting 33 8.3
2019-Dec-15 05:13 348 14 gusting 27 8.3
2019-Dec-15 05:08 295 14 gusting 27 8.9
2019-Dec-15 05:03 284 14 gusting 26 8.9
2019-Dec-15 04:58 292 13 gusting 26 8.9
2019-Dec-15 04:53 279 12 gusting 25 8.9
2019-Dec-15 04:48 293 12 gusting 22 9.4
2019-Dec-15 04:43 306 12 gusting 22 9.4
2019-Dec-15 04:38 9.4
2019-Dec-15 04:33 306 13 gusting 23 9.4
2019-Dec-15 04:28 316 13 gusting 23 9.4
2019-Dec-15 04:23 323 13 gusting 28 9.4
2019-Dec-15 04:18 291 13 gusting 28 9.4
2019-Dec-15 04:13 304 12 gusting 27 9.4
2019-Dec-15 04:03 033 12 gusting 27 9.4
2019-Dec-15 03:58 313 12 gusting 32 9.4
2019-Dec-15 03:53 296 11 gusting 32 9.4
2019-Dec-15 03:48 298 11 gusting 22 9.4
2019-Dec-15 03:43 286 11 gusting 22 10.0
2019-Dec-15 03:38 280 11 gusting 22 10.0
2019-Dec-15 03:33 334 10 gusting 19 10.0
2019-Dec-15 03:28 290 6 gusting 15 10.0
2019-Dec-15 03:23 10.0
2019-Dec-15 03:18 345 6 gusting 17 10.0
2019-Dec-15 03:13 309 7 gusting 17 10.0
2019-Dec-15 03:08 293 9 gusting 17 10.6
2019-Dec-15 03:03 281 9 gusting 17 10.6
2019-Dec-15 02:58 302 9 gusting 18 10.6
2019-Dec-15 02:53 309 8 gusting 18 10.6
2019-Dec-15 02:48 306 11 gusting 20 10.6
2019-Dec-15 02:43 334 12 gusting 20 10.6
2019-Dec-15 02:38 285 6 gusting 19 10.6
2019-Dec-15 02:33 275 1 gusting 12 10.6
2019-Dec-15 02:28 270 10.6
2019-Dec-15 02:23 309 10.6
2019-Dec-15 02:18 279 10.6
2019-Dec-15 02:13 285 10.6
2019-Dec-15 02:08 271 10.6
2019-Dec-15 02:03 273 10.6
2019-Dec-15 01:58 276 10.6
2019-Dec-15 01:53 251 10.6
2019-Dec-15 01:48 300 10.6
2019-Dec-15 01:43 292 10.6
2019-Dec-15 01:38 273 11.1
2019-Dec-15 01:33 293 11.1
2019-Dec-15 01:27 304 11.1
2019-Dec-15 01:22 281 11.1
2019-Dec-15 01:17 280 10.6
2019-Dec-15 01:12 261 10.6
2019-Dec-15 01:07 249 10.6
2019-Dec-15 01:02 296 11.1
2019-Dec-15 00:57 254 11.1
2019-Dec-15 00:52 294 11.1
2019-Dec-15 00:47 316 11.1
2019-Dec-15 00:42 271 11.1
2019-Dec-15 00:37 270 11.1
2019-Dec-15 00:32 273 11.1
2019-Dec-15 00:27 243 11.1
2019-Dec-15 00:22 261 11.1
2019-Dec-15 00:17 279 11.1
2019-Dec-15 00:12 280 11.1
2019-Dec-15 00:07 262 11.7
2019-Dec-15 00:02 261 11.7
2019-Dec-14 23:57 245 11.7
2019-Dec-14 23:52 284 11.7
2019-Dec-14 23:47 251 11.7
2019-Dec-14 23:42 244 11.7
2019-Dec-14 23:37 275 12.2
2019-Dec-14 23:32 296 12.2
2019-Dec-14 23:27 275 12.2
2019-Dec-14 23:22 263 12.2
2019-Dec-14 23:17 242 12.2
2019-Dec-14 23:12 283 12.8
2019-Dec-14 23:07 259 12.8
2019-Dec-14 23:02 256 12.8
2019-Dec-14 22:57 294 12.8
2019-Dec-14 22:52 256 12.8
2019-Dec-14 22:47 268 13.3
2019-Dec-14 22:42 274 13.3
2019-Dec-14 22:37 306 13.3
2019-Dec-14 22:32 287 13.9
2019-Dec-14 22:27 252 13.9
2019-Dec-14 22:22 256 14.4
2019-Dec-14 22:17 265 14.4
2019-Dec-14 22:12 265 14.4
2019-Dec-14 22:07 238 14.4
2019-Dec-14 22:02 259 14.4
2019-Dec-14 21:57 249 14.4
2019-Dec-14 21:52 229 14.4
2019-Dec-14 21:47 240 14.4
2019-Dec-14 21:42 245 14.4
2019-Dec-14 21:37 236 14.4
2019-Dec-14 21:32 232 14.4
2019-Dec-14 21:27 265 14.4
2019-Dec-14 21:22 230 14.4
2019-Dec-14 21:07 248 14.4
2019-Dec-14 21:02 240 14.4
2019-Dec-14 20:57 222 13.9
2019-Dec-14 20:52 252 13.9
2019-Dec-14 20:47 242 13.9
2019-Dec-14 20:42 263 13.9
2019-Dec-14 20:37 227 13.9
2019-Dec-14 20:32 263 13.9
2019-Dec-14 20:27 225 13.9
2019-Dec-14 20:22 239 13.9
2019-Dec-14 20:17 248 13.9
2019-Dec-14 20:12 232 13.9
2019-Dec-14 20:07 242 13.9
2019-Dec-14 20:02 241 13.9
2019-Dec-14 19:57 240 13.9
2019-Dec-14 19:52 252 13.9
2019-Dec-14 19:47 232 13.9
2019-Dec-14 19:42 243 13.9
2019-Dec-14 19:37 219 13.9
2019-Dec-14 19:32 232 13.9
2019-Dec-14 19:27 202 13.9
2019-Dec-14 19:22 228 14.4
2019-Dec-14 19:17 232 14.4
2019-Dec-14 19:12 222 14.4
2019-Dec-14 19:07 256 14.4
2019-Dec-14 19:02 235 14.4
2019-Dec-14 18:57 242 14.4
2019-Dec-14 18:51 245 14.4
2019-Dec-14 18:46 254 14.4
2019-Dec-14 18:41 239 14.4
2019-Dec-14 18:36 229 14.4
2019-Dec-14 18:31 218 14.4
2019-Dec-14 18:26 229 13.9
2019-Dec-14 18:21 226 14.4
2019-Dec-14 18:16 218 14.4
2019-Dec-14 18:11 229 0 gusting 3 14.4
2019-Dec-14 18:06 232 0 gusting 3 13.9
2019-Dec-14 18:01 233 14.4
2019-Dec-14 17:56 232 13.9
2019-Dec-14 17:51 228 14.4
2019-Dec-14 17:46 245 14.4
2019-Dec-14 17:41 226 14.4
2019-Dec-14 17:36 229 14.4
2019-Dec-14 17:31 225 13.9
2019-Dec-14 17:26 215 13.9
2019-Dec-14 17:21 235 13.9
2019-Dec-14 17:16 226 13.3
2019-Dec-14 17:11 227 13.9
2019-Dec-14 17:06 233 14.4
2019-Dec-14 17:01 241 14.4
2019-Dec-14 16:56 240 14.4
2019-Dec-14 16:51 247 14.4
2019-Dec-14 16:46 271 14.4
2019-Dec-14 16:41 259 14.4
2019-Dec-14 16:36 261 14.4
2019-Dec-14 16:31 250 14.4
2019-Dec-14 16:26 245 14.4
2019-Dec-14 16:21 269 14.4
2019-Dec-14 16:16 240 14.4
2019-Dec-14 16:11 237 14.4
2019-Dec-14 16:06 259 13.9
2019-Dec-14 16:01 257 13.9
2019-Dec-14 15:56 242 13.9
2019-Dec-14 15:51 260 13.9
2019-Dec-14 15:46 275 13.9
2019-Dec-14 15:41 248 13.9
2019-Dec-14 15:36 251 13.9
2019-Dec-14 15:31 240 13.9
2019-Dec-14 15:26 246 13.9
2019-Dec-14 15:21 250 13.9
2019-Dec-14 15:16 238 13.9
2019-Dec-14 15:11 246 13.9
2019-Dec-14 15:06 244 13.9
2019-Dec-14 15:01 242 13.3
2019-Dec-14 14:56 219 13.3
2019-Dec-14 14:51 242 13.3
2019-Dec-14 14:46 226 13.3
2019-Dec-14 14:41 230 13.3
2019-Dec-14 14:36 238 13.3
2019-Dec-14 14:31 237 13.3
2019-Dec-14 14:26 222 13.3
2019-Dec-14 14:21 229 13.3
2019-Dec-14 14:16 227 0 gusting 2 13.3
2019-Dec-14 14:10 227 13.3
2019-Dec-14 14:05 227 13.9
2019-Dec-14 14:00 227 13.9
2019-Dec-14 13:55 229 13.3
2019-Dec-14 13:50 220 13.3
2019-Dec-14 13:45 225 13.9
2019-Dec-14 13:40 228 13.9
2019-Dec-14 13:35 230 13.3
2019-Dec-14 13:30 231 13.3
2019-Dec-14 13:25 204 13.3
2019-Dec-14 13:20 221 13.3
2019-Dec-14 13:15 222 13.3
2019-Dec-14 13:10 231 13.3
2019-Dec-14 13:05 238 13.3
2019-Dec-14 13:00 233 13.3
2019-Dec-14 12:55 203 13.3
2019-Dec-14 12:50 238 13.3
2019-Dec-14 12:45 218 13.9
2019-Dec-14 12:40 221 13.3
2019-Dec-14 12:35 221 13.3
2019-Dec-14 12:30 206 13.3
2019-Dec-14 12:25 231 13.3
2019-Dec-14 12:20 217 13.3
2019-Dec-14 12:15 262 13.3
2019-Dec-14 12:10 227 13.3
2019-Dec-14 12:05 215 13.3
2019-Dec-14 12:00 234 13.3
2019-Dec-14 11:55 232 13.3
2019-Dec-14 11:50 242 13.3
2019-Dec-14 11:45 224 13.3
2019-Dec-14 11:40 220 12.8
2019-Dec-14 11:35 220 12.8
2019-Dec-14 11:30 212 12.8
2019-Dec-14 11:25 226 12.8
2019-Dec-14 11:20 206 12.8
2019-Dec-14 10:55 202 13.3
2019-Dec-14 10:50 198 13.3
2019-Dec-14 10:45 196 13.3
2019-Dec-14 10:40 186 13.3
2019-Dec-14 10:35 198 13.3
2019-Dec-14 10:30 213 13.3
2019-Dec-14 10:25 198 13.3
2019-Dec-14 10:20 221 13.3
2019-Dec-14 10:15 209 12.8
2019-Dec-14 10:10 190 13.3
2019-Dec-14 10:05 198 13.3
2019-Dec-14 10:00 221 13.3
2019-Dec-14 09:55 211 13.3
2019-Dec-14 09:50 223 12.8
2019-Dec-14 09:45 202 12.8
2019-Dec-14 09:40 205 13.3
2019-Dec-14 09:35 215 13.3
2019-Dec-14 09:30 222 13.3
2019-Dec-14 09:25 200 13.3
2019-Dec-14 09:20 209 13.3
2019-Dec-14 09:00 221 13.3
2019-Dec-14 08:50 207 12.8
2019-Dec-14 08:45 196 12.2
2019-Dec-14 08:40 209 12.2
2019-Dec-14 08:35 189 12.2
2019-Dec-14 08:30 205 12.2
2019-Dec-14 08:25 202 11.7
2019-Dec-14 08:15 183 11.7
2019-Dec-14 08:10 207 11.7
2019-Dec-14 08:05 199 11.7
2019-Dec-14 08:00 208 11.7
2019-Dec-14 07:55 184 11.7
2019-Dec-14 07:50 202 11.7
2019-Dec-14 07:45 196 0 gusting 6 11.7
2019-Dec-14 07:40 213 1 gusting 7 11.7
2019-Dec-14 07:35 202 1 gusting 9 11.7
2019-Dec-14 07:30 171 3 gusting 11 11.7
2019-Dec-14 07:25 211 5 gusting 13 11.7
2019-Dec-14 07:20 202 7 gusting 13 11.7
2019-Dec-14 07:15 190 10 gusting 17 11.7
2019-Dec-14 07:09 144 10 gusting 17 11.7
2019-Dec-14 07:04 138 9 gusting 20 11.7
2019-Dec-14 06:59 153 9 gusting 20 11.7
2019-Dec-14 06:54 176 8 gusting 17 11.1
2019-Dec-14 06:49 188 9 gusting 24 11.1
2019-Dec-14 06:44 178 10 gusting 24 11.7
2019-Dec-14 06:39 132 8 gusting 22 11.7
2019-Dec-14 06:34 169 7 gusting 14 11.7
2019-Dec-14 06:29 183 8 gusting 18 11.1
2019-Dec-14 06:24 159 11 gusting 25 11.7
2019-Dec-14 06:19 134 9 gusting 25 11.7
2019-Dec-14 06:14 141 9 gusting 18 11.1
2019-Dec-14 06:09 162 8 gusting 16 11.1
2019-Dec-14 06:04 144 7 gusting 16 11.1
2019-Dec-14 05:59 134 7 gusting 16 10.6
2019-Dec-14 05:54 128 8 gusting 16 10.6
2019-Dec-14 05:49 148 9 gusting 16 10.6
2019-Dec-14 05:44 145 9 gusting 16 11.1
2019-Dec-14 05:39 153 7 gusting 20 11.1
2019-Dec-14 05:34 156 7 gusting 20 11.1
2019-Dec-14 05:29 175 7 gusting 16 10.6
2019-Dec-14 05:24 129 7 gusting 16 10.6
2019-Dec-14 05:19 147 8 gusting 17 10.6
2019-Dec-14 05:14 176 9 gusting 17 10.6
2019-Dec-14 05:09 176 9 gusting 16 10.6
2019-Dec-14 05:04 134 7 gusting 15 10.6
2019-Dec-14 04:59 150 7 gusting 15 10.6
2019-Dec-14 04:54 119 7 gusting 16 10.6
2019-Dec-14 04:49 137 8 gusting 16 10.6
2019-Dec-14 04:44 153 8 gusting 17 10.6
2019-Dec-14 04:39 141 8 gusting 17 10.6
2019-Dec-14 04:34 157 7 gusting 16 10.6
2019-Dec-14 04:29 133 7 gusting 14 10.0
2019-Dec-14 04:24 098 7 gusting 16 10.0
2019-Dec-14 04:19 138 8 gusting 16 10.0
2019-Dec-14 04:14 130 8 gusting 16 10.0
2019-Dec-14 04:09 132 8 gusting 16 10.0
2019-Dec-14 04:04 143 8 gusting 16 10.0
2019-Dec-14 03:59 138 8 gusting 16 10.0
2019-Dec-14 03:54 136 9 gusting 17 10.0
2019-Dec-14 03:49 146 8 gusting 17 10.0
2019-Dec-14 03:44 148 7 gusting 17 10.0
2019-Dec-14 03:39 124 7 gusting 17 10.0
2019-Dec-14 03:34 092 8 gusting 17 10.0
2019-Dec-14 03:29 173 8 gusting 15 10.0
2019-Dec-14 03:24 137 8 gusting 17 10.0
2019-Dec-14 03:19 139 7 gusting 17 10.0
2019-Dec-14 03:14 128 7 gusting 16 10.0
2019-Dec-14 03:09 111 7 gusting 16 10.0
2019-Dec-14 03:04 146 8 gusting 16 10.0
2019-Dec-14 02:59 126 8 gusting 16 10.0
2019-Dec-14 02:54 117 8 gusting 16 10.0
2019-Dec-14 02:49 123 7 gusting 14 10.0
2019-Dec-14 02:44 130 6 gusting 14 9.4
2019-Dec-14 02:39 157 7 gusting 14 10.0
2019-Dec-14 02:34 090 7 gusting 14 10.0
2019-Dec-14 02:29 129 7 gusting 14 10.0
2019-Dec-14 02:24 140 7 gusting 14 10.0
2019-Dec-14 02:19 142 8 gusting 14 10.0
2019-Dec-14 02:14 140 8 gusting 14 10.0
2019-Dec-14 02:09 121 7 gusting 13 10.0
2019-Dec-14 02:04 132 7 gusting 13 10.0
2019-Dec-14 01:59 109 7 gusting 16 10.0
2019-Dec-14 01:54 159 6 gusting 16 10.0
2019-Dec-14 01:49 130 6 gusting 13 10.0
2019-Dec-14 01:44 132 7 gusting 13 10.0
2019-Dec-14 01:39 111 6 gusting 12 10.0
2019-Dec-14 01:34 144 6 gusting 11 9.4
2019-Dec-14 01:29 129 6 gusting 12 9.4
2019-Dec-14 01:24 122 6 gusting 12 9.4
2019-Dec-14 01:19 122 5 gusting 10 9.4
2019-Dec-14 01:14 150 5 gusting 10 9.4
2019-Dec-14 01:09 111 5 gusting 13 9.4
2019-Dec-14 01:04 138 5 gusting 13 9.4
2019-Dec-14 00:58 156 4 gusting 10 9.4
2019-Dec-14 00:53 186 4 gusting 10 9.4
2019-Dec-14 00:48 123 5 gusting 11 9.4
2019-Dec-14 00:43 192 5 gusting 11 9.4
2019-Dec-14 00:38 175 5 gusting 11 9.4
2019-Dec-14 00:33 115 5 gusting 13 9.4
2019-Dec-14 00:28 136 5 gusting 13 9.4
2019-Dec-14 00:23 184 5 gusting 12 9.4
2019-Dec-14 00:18 142 5 gusting 10 9.4
2019-Dec-14 00:13 156 5 gusting 10 9.4
2019-Dec-14 00:08 155 5 gusting 10 9.4
2019-Dec-14 00:03 153 5 gusting 10 9.4
2019-Dec-13 23:58 175 5 gusting 13 9.4
2019-Dec-13 23:53 158 5 gusting 13 9.4
2019-Dec-13 23:48 152 5 gusting 9 9.4
2019-Dec-13 23:43 159 4 gusting 12 9.4
2019-Dec-13 23:38 163 4 gusting 12 9.4
2019-Dec-13 23:33 144 4 gusting 8 9.4
2019-Dec-13 23:28 146 4 gusting 7 9.4
2019-Dec-13 23:23 134 4 gusting 8 9.4
2019-Dec-13 23:18 133 5 gusting 9 9.4
2019-Dec-13 23:13 171 5 gusting 9 9.4
2019-Dec-13 23:08 126 5 gusting 9 9.4
2019-Dec-13 23:03 149 5 gusting 9 9.4
2019-Dec-13 22:58 128 5 gusting 9 9.4
2019-Dec-13 22:53 144 5 gusting 10 9.4
2019-Dec-13 22:48 130 5 gusting 11 9.4
2019-Dec-13 22:43 183 6 gusting 11 9.4
2019-Dec-13 22:38 098 5 gusting 9 9.4
2019-Dec-13 22:33 146 6 gusting 12 9.4
2019-Dec-13 22:28 155 6 gusting 12 9.4
2019-Dec-13 22:23 136 5 gusting 11 9.4
2019-Dec-13 22:18 123 5 gusting 11 9.4
2019-Dec-13 22:13 157 4 gusting 10 9.4
2019-Dec-13 22:08 165 4 gusting 9 9.4
2019-Dec-13 22:03 142 4 gusting 9 9.4
2019-Dec-13 21:58 123 4 gusting 9 9.4
2019-Dec-13 21:53 134 4 gusting 8 9.4
2019-Dec-13 21:48 117 3 gusting 8 9.4
2019-Dec-13 21:43 139 3 gusting 8 9.4
2019-Dec-13 21:38 152 4 gusting 8 9.4
2019-Dec-13 21:33 142 4 gusting 8 9.4
2019-Dec-13 21:28 137 4 gusting 8 9.4
2019-Dec-13 21:23 142 4 gusting 7 9.4
2019-Dec-13 21:18 148 4 gusting 7 9.4
2019-Dec-13 21:13 146 4 gusting 8 9.4
2019-Dec-13 21:08 159 4 gusting 8 10.0
2019-Dec-13 21:03 133 4 gusting 9 10.0
2019-Dec-13 20:58 168 4 gusting 9 10.0
2019-Dec-13 20:53 145 4 gusting 7 10.0
2019-Dec-13 20:48 165 3 gusting 7 9.4
2019-Dec-13 20:43 145 3 gusting 7 9.4
2019-Dec-13 20:38 157 2 gusting 6 9.4
2019-Dec-13 20:33 135 3 gusting 8 9.4
2019-Dec-13 20:28 161 4 gusting 9 9.4
2019-Dec-13 20:23 132 4 gusting 9 9.4
2019-Dec-13 20:18 171 4 gusting 9 9.4
2019-Dec-13 20:13 163 4 gusting 9 9.4
2019-Dec-13 20:08 157 4 gusting 9 9.4
2019-Dec-13 20:03 151 3 gusting 7 9.4
2019-Dec-13 19:58 138 3 gusting 7 9.4
2019-Dec-13 19:53 142 3 gusting 9 9.4
2019-Dec-13 19:48 152 4 gusting 9 9.4
2019-Dec-13 19:43 142 3 gusting 7 9.4
2019-Dec-13 19:38 183 3 gusting 7 9.4
2019-Dec-13 19:33 161 4 gusting 8 9.4
2019-Dec-13 19:28 144 5 gusting 9 9.4
2019-Dec-13 19:23 175 5 gusting 9 9.4
2019-Dec-13 19:18 140 5 gusting 9 9.4
2019-Dec-13 19:13 148 4 gusting 9 9.4
2019-Dec-13 19:08 196 4 gusting 9 9.4
2019-Dec-13 19:03 140 4 gusting 8 9.4
2019-Dec-13 18:58 149 4 gusting 7 9.4
2019-Dec-13 18:53 172 4 gusting 7 9.4
2019-Dec-13 18:48 137 4 gusting 7 9.4
2019-Dec-13 18:43 165 3 gusting 7 9.4
2019-Dec-13 18:38 132 3 gusting 6 9.4
2019-Dec-13 18:33 156 3 gusting 6 9.4
2019-Dec-13 18:28 158 2 gusting 6 9.4
2019-Dec-13 18:23 152 2 gusting 6 8.9
2019-Dec-13 18:18 132 2 gusting 6 8.9
2019-Dec-13 18:13 166 3 gusting 7 8.9
2019-Dec-13 18:08 161 3 gusting 7 8.9
2019-Dec-13 18:03 153 3 gusting 7 8.9
2019-Dec-13 17:57 165 3 gusting 6 8.9
2019-Dec-13 17:52 165 3 gusting 6 8.9
2019-Dec-13 17:47 134 3 gusting 6 8.9
2019-Dec-13 17:42 157 3 gusting 6 8.9
2019-Dec-13 17:37 157 2 gusting 6 8.9
2019-Dec-13 17:32 152 2 gusting 6 8.9
2019-Dec-13 17:27 161 2 gusting 6 8.9
2019-Dec-13 17:22 166 2 gusting 6 8.9
2019-Dec-13 17:17 165 3 gusting 6 8.9
2019-Dec-13 17:12 163 3 gusting 7 8.9
2019-Dec-13 17:07 153 3 gusting 7 8.9
2019-Dec-13 17:02 164 2 gusting 6 8.9
2019-Dec-13 16:57 167 2 gusting 4 8.9
2019-Dec-13 16:52 178 1 gusting 5 8.9
2019-Dec-13 16:47 176 1 gusting 5 8.9
2019-Dec-13 16:42 172 1 gusting 4 8.9
2019-Dec-13 16:37 180 2 gusting 6 8.9
2019-Dec-13 16:32 170 2 gusting 6 8.9
2019-Dec-13 16:27 186 1 gusting 5 8.9
2019-Dec-13 16:22 183 2 gusting 6 8.9
2019-Dec-13 16:17 180 2 gusting 6 9.4
2019-Dec-13 16:12 197 3 gusting 8 9.4
2019-Dec-13 16:07 191 3 gusting 8 9.4
2019-Dec-13 16:02 216 3 gusting 7 8.9